Location: Gleizolles
(44.4833°N, 6.7667°E)
Time: 23:49:23
(UTC+00:00)

S-56A Canister/Altair - Pass Details

Date: 30 June 2024
Orbit: 638 x 2488 km, 38.9° (Epoch: 24 July)

Event Time Altitude Azimuth Distance (km) Brightness Sun altitude
Rises 23:02:01 0° 278° (W) 4,458 11.6 -22.0°
Reaches altitude 10° 23:04:50 10° 271° (W) 3,714 11.1 -22.0°
Maximum altitude 23:14:01 42° 205° (SSW) 2,620 9.8 -22.2°
Enters shadow 23:19:28 30° 162° (SSE) 3,365 10.2 -22.3°
Drops below altitude 10° 23:26:26 10° 142° (SE) 4,979 - -22.4°
Sets 23:30:55 0° 136° (SE) 6,099 - -22.4°
